Weather History for Ketchikan, AK

Change the Weather History Date:

Thursday, September 19, 2013

  Actual Average Record
Temperature  
Mean Temperature 56 °F -  
Max Temperature 59 °F 60 °F 72 °F (1976)
Min Temperature 53 °F 45 °F 37 °F (2004)
Degree Days  
Heating Degree Days 9    
Growing Degree Days 6 (Base 50)    
Moisture  
Dew Point 55 °F    
Average Humidity 96    
Maximum Humidity 100    
Minimum Humidity 75    
Precipitation  
Precipitation 5.00 in - - ()
Sea Level Pressure  
Sea Level Pressure 29.36 in    
Wind  
Wind Speed 20 mph (SE)    
Max Wind Speed 29 mph    
Max Gust Speed 44 mph    
Visibility 6 miles    
Events Rain    
Averages and records for this station are not official NWS values.
T = Trace of Precipitation, MM = Missing Value Source: NWS Daily Summary

Daily Weather History Graph

Daily Weather History Graph

Search for Another Location

Airport:

Trip Planner

Search our weather history database for the weather conditions in past years. The results will help you decide how hot, cold, wet, or windy it might be!

Date:

Astronomy

Sep. 19, 2013 Rise Set
Actual Time 6:27 AM AKDT 6:52 PM AKDT
Civil Twilight 5:50 AM AKDT 7:28 PM AKDT
Nautical Twilight 5:06 AM AKDT 8:12 PM AKDT
Astronomical Twilight 4:19 AM AKDT 8:59 PM AKDT
Moon 6:39 PM AKDT (9/19) 6:54 AM AKDT (9/19)
Length of Visible Light 13h 38m
Length of Day
12h 25m
Full, 100% of the Moon is Illuminated
Sep 19
Full
Sep 26
Last Quarter
Oct 4
New
Oct 11
First Quarter
Oct 18
Full

Hourly Weather History & Observations

Time (AKDT) Temp. Dew Point Humidity Pressure Visibility Wind Dir Wind Speed Gust Speed Precip Events Conditions
12:53 AM 53.1 °F 51.1 °F 93% 29.65 in 9.0 mi SSE 17.3 mph 24.2 mph 0.05 in Rain Light Rain
1:53 AM 55.9 °F 48.0 °F 75% 29.58 in 9.0 mi ESE 23.0 mph 35.7 mph 0.10 in Rain Light Rain
2:53 AM 55.0 °F 53.1 °F 93% 29.54 in 6.0 mi SE 15.0 mph 31.1 mph 0.23 in Rain Rain
3:53 AM 53.1 °F 53.1 °F 100% 29.50 in 4.0 mi SSE 15.0 mph 24.2 mph 0.27 in Rain Rain
4:21 AM 53.6 °F 51.8 °F 94% 29.47 in 4.0 mi SSE 20.7 mph 26.5 mph 0.14 in Rain Heavy Rain
4:49 AM 53.6 °F 53.6 °F 100% 29.47 in 4.0 mi SSE 20.7 mph 25.3 mph 0.33 in Rain Heavy Rain
4:53 AM 53.1 °F 53.1 °F 100% 29.47 in 4.0 mi SSE 20.7 mph 25.3 mph 0.36 in Rain Heavy Rain
5:53 AM 54.0 °F 54.0 °F 100% 29.44 in 4.0 mi SSE 19.6 mph 31.1 mph 0.53 in Rain Heavy Rain
6:12 AM 53.6 °F 53.6 °F 100% 29.44 in 4.0 mi SSE 17.3 mph 27.6 mph 0.19 in Rain Heavy Rain
6:53 AM 55.0 °F 55.0 °F 100% 29.44 in 3.0 mi SE 23.0 mph 33.4 mph 0.71 in Rain Heavy Rain
7:53 AM 55.0 °F 55.0 °F 100% 29.44 in 4.0 mi SE 20.7 mph 28.8 mph 0.75 in Rain Heavy Rain
8:53 AM 55.9 °F 55.9 °F 100% 29.44 in 6.0 mi SE 20.7 mph 27.6 mph 0.36 in Rain Rain
9:53 AM 55.9 °F 55.9 °F 100% 29.44 in 5.0 mi SSE 18.4 mph 25.3 mph 0.26 in Rain Light Rain
10:53 AM 55.9 °F - N/A% 29.42 in 4.0 mi SE 23.0 mph 29.9 mph 0.24 in Rain Rain
11:53 AM 55.9 °F 55.9 °F 100% 29.40 in 7.0 mi SSE 18.4 mph 35.7 mph 0.16 in Rain Light Rain
12:53 PM 57.0 °F 55.9 °F 96% 29.37 in 10.0 mi SE 26.5 mph 34.5 mph 0.02 in   Overcast
1:53 PM 57.0 °F 57.0 °F 100% 29.35 in 5.0 mi SE 21.9 mph 31.1 mph 0.16 in Rain Rain
2:53 PM 57.0 °F 55.9 °F 96% 29.32 in 3.0 mi SSE 13.8 mph 26.5 mph 0.25 in Rain Rain
3:53 PM 57.9 °F 55.9 °F 93% 29.28 in 4.0 mi SSE 21.9 mph 33.4 mph 0.12 in Rain Light Rain
4:53 PM 57.9 °F 55.9 °F 93% 29.24 in 9.0 mi SSE 19.6 mph 29.9 mph 0.08 in Rain Light Rain
5:53 PM 57.0 °F 57.0 °F 100% 29.27 in 7.0 mi SE 20.7 mph 31.1 mph 0.05 in Rain Light Rain
6:53 PM 57.9 °F 55.9 °F 93% 29.26 in 10.0 mi SE 20.7 mph 29.9 mph 0.00 in Rain Light Rain
7:00 PM 57.2 °F 55.4 °F 94% 29.25 in 9.0 mi SE 17.3 mph 29.9 mph 0.01 in Rain Light Rain
7:07 PM 57.2 °F 55.4 °F 94% 29.24 in 5.0 mi SE 18.4 mph 25.3 mph 0.03 in Rain Rain
7:53 PM 57.0 °F 55.9 °F 96% 29.24 in 7.0 mi SE 24.2 mph 29.9 mph 0.10 in   Overcast
8:00 PM 57.2 °F 55.4 °F 94% 29.23 in 10.0 mi SE 21.9 mph 29.9 mph 0.00 in Rain Light Rain
8:53 PM 57.0 °F 55.9 °F 96% 29.21 in 10.0 mi SE 18.4 mph 26.5 mph 0.04 in Rain Light Rain
9:53 PM 57.0 °F 55.9 °F 96% 29.20 in 10.0 mi SE 18.4 mph 34.5 mph 0.01 in Rain Light Rain
10:53 PM 59.0 °F 55.9 °F 90% 29.17 in 10.0 mi SE 28.8 mph 43.7 mph 0.00 in Rain Light Rain
11:30 PM 57.2 °F 57.2 °F 100% 29.17 in 10.0 mi SE 24.2 mph 33.4 mph 0.07 in Rain Light Rain
11:53 PM 57.0 °F 57.0 °F 100% 29.18 in 4.0 mi SSE 19.6 mph 29.9 mph 0.15 in Rain Rain